Location: Koszewko
(53.2876°N, 14.9061°E)
Time: 01:34:25
(UTC+00:00)

Meteor 1-11 Rocket - Pass Details

Date: 03 March 2021
Orbit: 831 x 916 km, 81.2° (Epoch: 11 April)

Event Time Altitude Azimuth Distance (km) Brightness Sun altitude
Rises 19:25:47 0° 198° (SSW) 3,459 6.8 -24.7°
Reaches altitude 10° 19:28:15 10° 201° (SSW) 2,512 6.1 -25.0°
Maximum altitude 19:33:57 72° 285° (WNW) 903 3.9 -25.8°
Drops below altitude 10° 19:39:33 10° 10° (N) 2,477 6.3 -26.5°
Sets 19:41:59 0° 13° (NNE) 3,407 7.0 -26.9°
